STARLINK-2335 (47878 NORAD) Tracking and Keplerian Element Data

This shows tracking and keplerian element data for the satellite.

Feedback or suggestion? Click here.




ElementValue
Catalog47878
NameSTARLINK-2335
Epoch Orbit197
Epoch Day173.91668981
Epoch Year2021
RAAN79.3605
Inclination53.0478
Eccentricity0.0001299
Argument of Perigee69.8927
Mean Anonmoly155.0308
Mean Motion15.51241342
Decay Rate-0.01083739
L11 47878U 21021U 21173.91668981 -.01083739 00000-0 -20076-1 0 9991
L22 47878 53.0478 79.3605 0001299 69.8927 155.0308 15.51241342 1972

Live tracking and technical data element details for STARLINK-2335 (NORAD 47878). STARLINK-2335 can be tracked NOW for your location showing map with azimuth and elevation plus other details from your city location.

Track the satellite on the map from your city or location and see movement details for azimuth, elevation, latitude, longitude, range, height, and movement on the map or in text.







IsCatalogInMostPopularTable: catalog: 47878, numindb: 47
Update: records affected: 1



GetName: 47878 STARLINK-2335

Hit Count: updated at: Thu, 24 Jun 2021 02:09:26 GMT